Regional Weather Roundup
Issued by NWS

Home | Current Version | Previous Version | Graphics & Text | Print | Product List | Glossary On
Versions: 1 2 3 4 5 6 7 8 9 10 11 12 13 14 15 16 17 18 19 20 21 22 23 24 25 26 27 28 29 30 31 32 33 34 35 36 37 38 39 40 41 42 43 44 45 46 47 48 49 50
000
ASUS43 KLSX 171057
RWRMO

WEATHER SUMMARY FOR MISSOURI
NATIONAL WEATHER SERVICE SPRINGFIELD MO
500 AM CST SUN DEC 17 2017

NOTE: "FAIR" INDICATES FEW OR NO CLOUDS BELOW 12,000 FEET WITH NO
       SIGNIFICANT WEATHER AND/OR OBSTRUCTIONS TO VISIBILITY.
       CURRENT SKY AND/OR WEATHER CONDITIONS ARE NOT AVAILABLE FOR
       CHILLICOTHE AND FARMINGTON.

MOZ001>031-035>038-043-044-053-054-171200-
...NORTHERN AND WESTERN MISSOURI...

CITY           SKY/WX    TMP DP  RH WIND       PRES   REMARKS
KANSAS CTY INT DRIZZLE   44  38  79 SW16      29.97R
LEE`S SUMMIT   LGT RAIN  44  39  82 SW16      29.98S
ST JOSEPH      LGT RAIN  45  35  68 W3        29.95F
CHILLICOTHE      N/A     46  28  49 S6        29.95F

$$
MOZ066>068-077>081-088>096-101>105-171200-
...SOUTHWEST MISSOURI...

CITY           SKY/WX    TMP DP  RH WIND       PRES   REMARKS
SPRINGFIELD    RAIN      41  41 100 SE10      29.97F FOG
JOPLIN         LGT RAIN  42  42 100 SE5       30.00F FOG

$$
MOZ032>034-039>042-045>050-055>058-069>072-171200-
...CENTRAL MISSOURI...

CITY           SKY/WX    TMP DP  RH WIND       PRES   REMARKS
COLUMBIA       NOT AVBL
JEFFERSON CITY CLOUDY    44  30  57 E7        30.04S
ROLLA          CLOUDY    45  29  53 S10       30.05F
SEDALIA        CLOUDY    46  40  79 SW12      30.01S
WARRENSBURG    LGT RAIN  43  36  75 S8        29.99S

$$
MOZ051-052-059>065-171200-
...EAST CENTRAL MISSOURI...

CITY           SKY/WX    TMP DP  RH WIND       PRES   REMARKS
ST LOUIS INTL  CLOUDY    45  30  55 SE5       30.06F

$$
MOZ072>076-082>087-097>100-106>115-171200-
...SOUTH CENTRAL AND SOUTHEAST MISSOURI...

CITY           SKY/WX    TMP DP  RH WIND       PRES   REMARKS
CAPE GIRARDEAU CLOUDY    42  36  79 SW8       30.14S
POPLAR BLUFF   LGT RAIN  42  40  92 S5        30.15R FOG
WEST PLAINS    LGT RAIN  41  39  93 E6        30.03F

$$



USA.gov is the U.S. government's official web portal to all federal, state and local government web resources and services.